Wind_Speed
3 3 3 4 5 5 6 8 9 11 12 14 15 16 17 18 19 19 19 19 19 18 18 17 16 14 13 12 11 11 12 14 16 18 21 22 23 24 25 27 27 28 28
3 3 4 5 5 5 7 8 9 11 12 14 15 16 17 18 19 19 19 19 19 19 18 17 16 14 12 10 10 10 10 12 15 16 19 21 22 22 24 25 26 28 29
3 3 4 5 5 6 7 8 9 11 12 13 15 16 17 18 18 19 19 19 19 19 18 17 16 14 12 10 9 8 9 11 12 15 17 20 22 23 23 24 24 25 27
3 4 5 5 5 6 7 8 9 11 12 13 15 16 17 18 18 19 19 19 19 19 18 18 16 14 12 10 8 7 7 9 11 13 15 18 20 22 23 24 24 24 25
4 4 4 5 6 6 7 8 9 11 12 13 14 15 16 17 18 18 19 19 19 19 18 17 16 14 12 10 8 6 6 8 9 11 14 16 18 20 22 23 23 24 24
4 4 5 5 6 6 7 8 9 10 11 12 14 15 16 17 17 18 18 19 19 18 18 17 16 14 12 11 8 6 6 7 7 9 11 13 16 18 20 22 23 24 24
4 4 5 6 6 7 7 8 9 10 11 12 13 15 15 16 17 17 18 18 18 19 18 17 15 14 12 11 9 7 5 5 6 7 9 11 14 16 18 20 21 22 23
4 5 6 6 7 7 7 8 9 10 11 12 13 15 15 16 16 16 17 17 18 18 18 17 15 14 13 11 9 7 5 4 5 6 8 9 12 14 17 18 20 21 22
6 6 7 7 7 7 7 8 9 10 11 12 13 14 15 15 16 16 16 17 17 17 17 17 16 14 12 11 10 8 6 4 4 5 7 8 10 12 15 17 18 20 21
7 7 8 8 8 8 8 8 9 10 11 12 13 14 14 15 15 15 16 16 17 17 17 17 16 14 13 11 10 9 6 4 3 4 5 7 9 11 13 16 17 19 21
8 8 8 9 9 9 9 9 9 10 11 11 13 14 14 14 14 14 15 15 16 16 16 16 16 15 14 12 10 9 7 5 4 3 5 6 8 10 12 15 16 18 19
9 9 9 10 10 10 10 10 10 11 11 12 13 14 14 14 14 14 14 14 15 15 15 15 15 15 14 12 11 9 8 6 4 3 4 5 7 9 10 12 14 16 18
10 10 10 10 11 11 11 11 12 12 12 12 13 13 14 14 14 13 13 13 14 14 14 14 15 14 13 13 11 9 8 6 5 4 3 4 6 8 9 10 12 14 16
10 11 12 12 12 12 12 12 13 13 13 13 13 13 14 14 14 13 13 13 13 13 13 13 14 14 13 12 12 10 8 7 6 5 4 3 4 6 8 9 11 13 15
12 13 13 13 13 13 13 14 14 14 14 14 14 14 14 14 14 13 12 12 12 12 12 13 13 13 12 12 11 11 9 8 7 5 4 4 4 4 6 8 10 12 14
14 14 15 15 15 15 15 15 15 15 15 15 15 14 14 14 14 13 13 12 12 12 12 12 12 12 12 11 11 10 10 9 7 6 5 5 5 5 6 7 9 11 12
16 17 17 17 17 17 17 17 17 17 17 17 17 16 15 15 14 14 13 13 13 12 12 12 12 12 11 11 11 10 9 9 8 8 7 6 5 6 7 8 10 11 12
18 18 19 19 19 19 19 19 19 19 19 18 18 18 17 17 16 15 15 14 14 13 13 12 12 12 12 11 11 10 10 9 9 8 8 7 7 7 7 8 10 11 12
20 21 21 22 22 22 21 21 21 21 20 20 20 20 19 19 18 17 16 15 15 15 14 14 13 13 13 12 11 11 11 10 10 9 9 8 8 8 8 8 9 11 12
23 23 23 23 24 24 24 23 23 23 22 22 22 22 22 21 20 19 18 18 17 16 16 15 15 14 14 14 13 12 12 12 11 11 11 10 10 9 9 9 9 10 12
26 26 26 26 26 26 26 26 25 25 25 25 24 24 24 24 23 22 21 20 20 19 18 17 17 16 16 15 15 14 14 13 13 13 12 12 12 11 11 11 11 11 12
28 28 28 28 28 28 28 28 28 28 27 27 27 26 26 26 25 25 24 23 22 21 20 20 19 19 18 17 17 17 16 15 15 15 14 14 14 13 13 12 12 12 13
30 30 30 31 30 31 31 31 30 31 30 29 29 28 28 28 28 27 26 26 25 24 23 22 21 21 20 19 19 18 18 18 17 17 16 16 15 15 14 14 14 14 15
33 33 32 32 32 32 33 33 33 33 33 32 31 31 31 30 30 29 29 28 28 27 26 25 24 23 22 22 21 20 20 19 19 19 18 17 17 16 16 16 16 16 16
36 35 35 35 35 35 35 35 35 35 34 34 34 33 33 32 32 32 31 30 30 29 28 27 26 25 24 24 23 22 22 21 21 20 20 20 19 18 18 18 18 18 19
39 39 39 39 38 38 37 37 37 37 37 36 36 36 35 35 34 34 33 33 32 32 31 30 29 28 27 26 25 24 24 23 23 22 22 21 21 21 21 21 21 21 21
Wind_Direction
273 281 313 325 332 335 339 341 346 346 345 346 347 347 348 348 348 348 347 347 346 344 341 338 332 326 317 304 289 272 257 241 234 230 228 226 225 224 222 221 221 219 219
276 280 306 318 325 330 334 337 340 341 342 344 347 347 347 347 348 348 348 347 346 346 344 341 338 333 327 313 297 276 257 244 236 230 227 225 224 223 220 220 220 219 218
261 283 301 309 315 322 327 331 336 339 340 342 345 346 346 347 349 350 349 347 347 347 346 343 341 337 332 322 305 282 255 246 238 231 228 226 224 222 220 219 218 217 218
269 284 290 301 308 312 319 326 331 334 337 341 343 345 346 348 350 350 350 349 348 348 348 346 344 341 336 329 315 289 261 248 241 233 230 226 223 222 219 219 219 219 219
262 274 288 297 305 308 315 322 327 331 336 340 342 344 346 347 349 351 351 351 351 350 349 349 348 346 341 335 324 301 268 253 245 235 230 226 222 220 218 217 220 220 219
278 276 287 294 301 306 312 320 326 330 335 339 341 343 345 346 348 350 352 353 353 353 351 351 350 349 346 341 333 317 281 257 246 237 231 226 221 220 218 217 220 221 220
282 282 286 296 299 302 309 317 323 329 333 337 339 342 343 346 348 350 352 354 356 356 354 353 353 352 351 349 343 332 303 265 246 237 232 224 219 218 218 218 220 221 221
283 286 288 292 295 301 307 313 321 327 331 335 338 340 341 344 347 350 352 355 356 358 358 358 357 356 355 352 349 342 323 288 253 239 233 226 220 219 218 219 221 223 222
290 289 286 286 290 296 303 310 318 323 328 334 337 339 340 343 346 349 352 355 357 359 1 2 1 358 356 355 353 350 340 312 270 250 239 234 227 223 221 220 222 223 222
294 291 287 287 289 292 297 304 311 318 325 331 335 337 339 341 343 347 351 354 356 360 1 2 3 1 358 356 357 357 351 333 295 263 247 238 230 225 223 222 221 223 225
295 292 289 288 289 289 292 297 303 311 320 326 332 336 338 339 341 344 348 351 354 357 360 2 4 4 4 1 359 360 355 346 322 282 253 240 232 227 226 224 223 222 224
295 291 288 284 283 285 289 292 297 304 311 319 326 332 336 339 340 341 344 348 351 354 357 1 3 5 6 6 4 2 3 356 340 309 271 250 237 229 227 225 223 222 223
293 292 290 283 280 282 286 289 292 296 302 310 317 325 331 335 338 338 339 343 347 351 354 358 1 3 5 6 6 4 3 1 353 334 301 269 249 237 229 223 222 221 222
294 294 291 285 282 282 282 285 289 292 295 301 308 316 323 328 331 334 335 338 343 347 350 354 357 360 1 3 4 4 1 358 354 346 327 294 260 240 233 230 230 227 225
291 290 289 286 283 282 282 283 287 289 291 294 300 307 314 320 324 326 329 332 336 340 345 349 351 354 356 357 360 1 1 359 356 349 338 316 285 256 242 237 235 233 230
288 287 287 287 284 282 281 282 285 287 288 289 292 299 304 309 314 318 320 324 327 331 335 341 345 348 350 352 355 356 356 357 355 352 340 322 305 275 259 249 245 241 237
287 285 285 285 284 282 281 281 282 284 286 288 289 291 295 298 302 306 310 313 317 321 325 329 334 338 342 345 347 346 347 348 347 342 338 329 312 293 274 263 256 251 248
285 284 283 283 281 280 279 279 280 281 283 285 286 287 289 291 294 297 300 303 307 311 314 317 320 324 328 332 334 335 335 334 334 333 330 327 316 303 286 275 266 260 256
284 282 281 280 279 278 278 277 278 279 280 281 282 283 284 286 288 290 293 295 298 302 305 308 310 313 315 318 322 323 324 324 322 319 316 316 314 307 296 283 275 268 262
285 283 281 279 278 277 276 275 276 277 278 279 279 280 281 281 283 284 287 289 291 294 298 299 302 304 306 307 309 312 314 316 315 311 306 305 304 299 297 291 283 276 270
285 284 283 281 279 277 276 275 275 276 277 277 277 278 278 278 279 280 281 283 285 288 291 292 294 297 299 299 300 302 303 305 307 306 302 299 297 293 291 290 287 283 277
285 283 282 281 280 278 276 275 274 273 273 274 275 276 276 276 276 276 277 279 280 282 284 286 288 290 293 294 295 295 296 298 300 300 299 297 295 290 287 287 285 284 282
283 282 281 280 279 278 276 275 273 272 272 272 272 273 273 274 274 273 274 276 276 277 279 281 284 286 287 289 291 291 292 293 294 295 295 295 294 288 285 286 286 285 283
282 280 279 278 278 277 276 276 274 272 272 271 270 270 271 271 271 271 271 273 273 274 276 277 279 281 283 284 286 287 288 289 289 290 290 290 289 287 284 284 284 284 283
280 279 279 278 277 276 275 275 275 272 270 270 270 269 269 269 269 269 269 269 270 271 272 273 274 276 278 280 281 282 283 284 285 286 287 286 286 285 283 283 283 283 283
279 278 278 278 277 276 275 274 273 271 269 269 268 268 267 266 266 266 266 266 267 268 269 270 271 273 274 276 278 279 280 281 282 283 283 283 283 283 283 282 282 283 283
Height
5846 5846 5845 5845 5844 5843 5842 5841 5839 5837 5835 5833 5830 5827 5824 5820 5816 5813 5809 5805 5801 5798 5794 5791 5787 5785 5782 5780 5779 5779 5779 5780 5781 5783 5785 5788 5791 5795 5798 5802 5806 5810 5814
5845 5844 5844 5843 5843 5842 5841 5840 5838 5836 5834 5831 5829 5825 5822 5819 5815 5811 5807 5804 5800 5796 5792 5789 5785 5782 5780 5778 5776 5776 5776 5776 5778 5779 5781 5784 5788 5791 5794 5798 5801 5805 5809
5843 5843 5843 5842 5841 5841 5840 5838 5837 5835 5833 5830 5827 5824 5821 5817 5814 5810 5806 5802 5798 5795 5791 5787 5784 5780 5778 5775 5774 5773 5773 5773 5775 5776 5778 5780 5783 5787 5790 5794 5797 5801 5805
5842 5842 5841 5841 5840 5840 5838 5837 5835 5833 5831 5828 5826 5823 5820 5816 5812 5809 5805 5801 5797 5793 5789 5785 5782 5779 5776 5774 5772 5771 5771 5771 5772 5773 5775 5777 5779 5783 5786 5790 5793 5797 5800
5840 5840 5840 5839 5839 5838 5837 5835 5834 5832 5830 5827 5824 5821 5818 5815 5811 5808 5804 5800 5796 5792 5788 5784 5781 5777 5774 5772 5770 5769 5769 5769 5769 5770 5772 5773 5776 5779 5782 5786 5790 5793 5796
5838 5838 5838 5838 5837 5836 5835 5834 5832 5830 5828 5826 5823 5820 5817 5814 5810 5806 5803 5799 5795 5791 5787 5783 5779 5776 5773 5771 5769 5767 5767 5767 5767 5768 5769 5771 5773 5776 5779 5782 5785 5789 5792
5837 5837 5836 5836 5835 5835 5834 5832 5831 5829 5827 5824 5822 5819 5816 5813 5809 5805 5802 5798 5794 5790 5786 5782 5779 5776 5773 5770 5768 5766 5765 5765 5765 5766 5767 5768 5770 5773 5775 5779 5782 5785 5788
5835 5835 5834 5834 5834 5833 5832 5831 5829 5827 5825 5823 5820 5818 5815 5811 5808 5804 5801 5797 5793 5789 5785 5782 5778 5775 5772 5770 5767 5765 5764 5764 5764 5764 5765 5766 5768 5770 5772 5775 5778 5781 5785
5834 5833 5833 5832 5832 5831 5830 5829 5827 5826 5824 5821 5819 5816 5813 5810 5807 5803 5800 5796 5793 5789 5785 5781 5778 5775 5772 5769 5767 5765 5763 5763 5762 5763 5763 5764 5766 5767 5770 5772 5775 5778 5781
5832 5831 5831 5830 5829 5829 5828 5827 5825 5824 5822 5820 5817 5815 5812 5809 5805 5802 5799 5796 5792 5789 5785 5782 5778 5775 5772 5769 5767 5764 5763 5762 5761 5761 5762 5763 5764 5765 5767 5769 5772 5774 5778
5830 5829 5828 5828 5827 5827 5826 5825 5824 5822 5820 5818 5816 5813 5810 5807 5804 5801 5798 5795 5792 5788 5785 5782 5778 5775 5772 5769 5767 5764 5763 5761 5761 5761 5761 5761 5762 5763 5764 5766 5768 5771 5774
5827 5826 5826 5825 5825 5824 5823 5822 5821 5820 5818 5816 5814 5811 5808 5805 5803 5800 5797 5794 5791 5788 5785 5781 5778 5775 5772 5769 5767 5765 5763 5761 5760 5760 5760 5760 5760 5761 5762 5764 5765 5768 5770
5824 5823 5823 5822 5822 5821 5820 5819 5818 5817 5815 5814 5812 5809 5807 5804 5801 5798 5796 5793 5790 5787 5784 5781 5778 5775 5772 5769 5767 5765 5763 5761 5760 5759 5759 5759 5759 5759 5760 5762 5763 5765 5767
5821 5820 5819 5819 5818 5818 5817 5816 5815 5814 5812 5811 5809 5807 5805 5802 5799 5797 5794 5792 5789 5786 5784 5781 5778 5775 5772 5770 5767 5765 5763 5761 5760 5759 5758 5758 5757 5758 5758 5760 5761 5763 5764
5818 5817 5816 5815 5815 5814 5814 5813 5812 5810 5809 5808 5806 5804 5802 5800 5798 5795 5793 5790 5788 5785 5783 5780 5778 5775 5772 5770 5767 5765 5763 5761 5760 5759 5758 5757 5756 5756 5757 5758 5759 5760 5761
5814 5813 5812 5812 5811 5810 5810 5809 5808 5807 5805 5804 5803 5801 5799 5797 5795 5793 5791 5788 5786 5784 5782 5779 5777 5774 5772 5769 5767 5765 5763 5761 5760 5758 5757 5756 5755 5755 5755 5755 5756 5757 5758
5810 5809 5808 5807 5806 5806 5805 5804 5803 5802 5801 5800 5798 5797 5796 5794 5792 5790 5788 5786 5784 5782 5780 5778 5775 5773 5771 5769 5766 5764 5763 5761 5759 5757 5756 5755 5754 5753 5753 5753 5753 5754 5755
5805 5804 5803 5802 5801 5801 5800 5799 5798 5797 5796 5795 5794 5792 5791 5790 5788 5786 5785 5783 5781 5779 5777 5775 5773 5771 5769 5767 5765 5763 5761 5760 5758 5756 5755 5753 5752 5751 5751 5750 5750 5751 5751
5799 5798 5797 5796 5795 5795 5794 5793 5792 5791 5791 5790 5789 5787 5786 5785 5783 5782 5780 5779 5777 5776 5774 5772 5770 5769 5767 5765 5763 5761 5760 5758 5756 5754 5753 5752 5750 5749 5748 5748 5747 5747 5747
5792 5791 5791 5789 5788 5788 5787 5787 5786 5785 5784 5783 5782 5781 5780 5779 5778 5777 5775 5774 5773 5771 5770 5768 5767 5765 5763 5762 5760 5759 5757 5755 5753 5752 5750 5749 5748 5747 5746 5745 5744 5744 5743
5785 5783 5783 5782 5781 5780 5779 5779 5778 5778 5777 5776 5775 5775 5774 5773 5772 5771 5770 5769 5767 5766 5765 5764 5762 5761 5759 5758 5756 5755 5753 5752 5750 5749 5747 5746 5745 5744 5743 5742 5741 5740 5739
5776 5775 5774 5773 5772 5771 5771 5770 5770 5769 5769 5768 5767 5767 5766 5765 5764 5764 5763 5762 5761 5760 5759 5758 5757 5756 5755 5753 5752 5750 5749 5748 5746 5745 5743 5742 5741 5740 5739 5738 5737 5736 5735
5767 5766 5765 5764 5763 5762 5761 5761 5760 5760 5759 5759 5759 5758 5757 5757 5756 5756 5755 5755 5754 5753 5753 5752 5751 5750 5749 5747 5746 5745 5744 5742 5741 5740 5739 5738 5736 5735 5734 5734 5733 5732 5731
5757 5756 5755 5754 5753 5752 5751 5750 5750 5750 5749 5749 5749 5749 5748 5748 5747 5747 5746 5746 5746 5745 5745 5744 5744 5743 5742 5741 5740 5739 5738 5737 5736 5735 5733 5732 5731 5730 5729 5729 5728 5727 5726
5746 5745 5744 5743 5742 5741 5740 5739 5738 5738 5738 5738 5738 5738 5738 5737 5737 5737 5737 5737 5737 5736 5736 5736 5735 5735 5735 5734 5733 5732 5731 5730 5729 5728 5727 5726 5725 5725 5724 5723 5722 5721 5720
5733 5732 5732 5731 5730 5729 5729 5727 5726 5726 5726 5726 5726 5726 5726 5726 5726 5726 5727 5726 5727 5727 5726 5726 5726 5726 5726 5725 5725 5724 5724 5723 5722 5721 5720 5720 5719 5718 5717 5716 5715 5714 5714